Weather History for Newark, NJ

Change the Weather History Date:

Monday, May 26, 2014

  Actual Average Record
Temperature  
Mean Temperature 74 °F 66 °F  
Max Temperature 88 °F 75 °F 96 °F (1965)
Min Temperature 60 °F 56 °F 44 °F (1967)
Degree Days  
Heating Degree Days 0 3  
Month to date heating degree days 66 126  
Since 1 July heating degree days 5158 4846  
Cooling Degree Days 9 3  
Month to date cooling degree days 40 44  
Year to date cooling degree days 48 56  
Growing Degree Days 24 (Base 50)    
Moisture  
Dew Point 50 °F    
Average Humidity 48    
Maximum Humidity 69    
Minimum Humidity 26    
Precipitation  
Precipitation 0.00 in 0.14 in 1.29 in (2003)
Month to date precipitation 4.03 3.38  
Year to date precipitation 23.35 18.18  
Snow  
Snow 0.00 in 0.00 in 0.00 in (2002)
Month to date snowfall 0.0 0.0  
Since 1 July snowfall 61.1 28.5  
Snow Depth 0.00 in    
Sea Level Pressure  
Sea Level Pressure 29.98 in    
Wind  
Wind Speed 12 mph (WSW)    
Max Wind Speed 21 mph    
Max Gust Speed 29 mph    
Visibility 10 miles    
Events      
T = Trace of Precipitation, MM = Missing Value Source: NWS Daily Summary

Daily Weather History Graph

Daily Weather History Graph

Search for Another Location

Airport:

Trip Planner

Search our weather history database for the weather conditions in past years. The results will help you decide how hot, cold, wet, or windy it might be!

Date:

Astronomy

May. 26, 2014 Rise Set
Actual Time 5:31 AM EDT 8:16 PM EDT
Civil Twilight 4:58 AM EDT 8:49 PM EDT
Nautical Twilight 4:18 AM EDT 9:29 PM EDT
Astronomical Twilight 3:32 AM EDT 10:15 PM EDT
Moon 4:12 AM EDT (5/26) 6:16 PM EDT (5/26)
Length of Visible Light 15h 50m
Length of Day
14h 45m
Waning Crescent, 5% of the Moon is Illuminated
May 26
Waning Crescent
May 28
New
Jun 5
First Quarter
Jun 13
Full
Jun 19
Last Quarter

Hourly Weather History & Observations

Time (EDT) Temp. Dew Point Humidity Pressure Visibility Wind Dir Wind Speed Gust Speed Precip Events Conditions
12:51 AM 66.0 °F 48.0 °F 52% 30.05 in 10.0 mi SSW 4.6 mph - N/A   Mostly Cloudy
1:51 AM 62.1 °F 48.9 °F 62% 30.04 in 10.0 mi SSW 4.6 mph - N/A   Mostly Cloudy
2:51 AM 60.8 °F 50.0 °F 68% 30.04 in 10.0 mi SSW 4.6 mph - N/A   Mostly Cloudy
3:51 AM 60.1 °F 48.9 °F 67% 30.04 in 10.0 mi SW 3.5 mph - N/A   Mostly Cloudy
4:51 AM 63.0 °F 48.9 °F 60% 30.04 in 10.0 mi SW 5.8 mph - N/A   Mostly Cloudy
5:51 AM 64.9 °F 46.9 °F 52% 30.05 in 10.0 mi SW 9.2 mph - N/A   Overcast
6:51 AM 66.0 °F 48.0 °F 52% 30.05 in 10.0 mi SW 12.7 mph - N/A   Mostly Cloudy
7:51 AM 68.0 °F 48.9 °F 50% 30.05 in 10.0 mi WSW 11.5 mph - N/A   Mostly Cloudy
8:51 AM 73.9 °F 50.0 °F 43% 30.05 in 10.0 mi WSW 13.8 mph 21.9 mph N/A   Mostly Cloudy
9:51 AM 77.0 °F 50.0 °F 39% 30.04 in 10.0 mi West 11.5 mph - N/A   Scattered Clouds
10:51 AM 81.0 °F 50.0 °F 34% 30.04 in 10.0 mi WSW 13.8 mph 23.0 mph N/A   Mostly Cloudy
11:51 AM 84.0 °F 51.1 °F 32% 30.01 in 10.0 mi West 15.0 mph 19.6 mph N/A   Mostly Cloudy
12:51 PM 84.9 °F 46.9 °F 27% 29.99 in 10.0 mi WSW 18.4 mph 24.2 mph N/A   Mostly Cloudy
1:51 PM 86.0 °F 48.0 °F 27% 29.96 in 10.0 mi WSW 13.8 mph 23.0 mph N/A   Mostly Cloudy
2:51 PM 86.0 °F 50.0 °F 29% 29.94 in 10.0 mi West 17.3 mph - N/A   Mostly Cloudy
3:51 PM 87.1 °F 48.9 °F 27% 29.93 in 10.0 mi West 18.4 mph - N/A   Mostly Cloudy
4:51 PM 86.0 °F 48.9 °F 28% 29.91 in 10.0 mi West 12.7 mph - N/A   Mostly Cloudy
5:51 PM 84.9 °F 48.9 °F 29% 29.89 in 10.0 mi WSW 18.4 mph - N/A   Mostly Cloudy
6:51 PM 84.0 °F 51.1 °F 32% 29.90 in 10.0 mi WSW 15.0 mph - N/A   Mostly Cloudy
7:51 PM 82.0 °F 51.1 °F 34% 29.90 in 10.0 mi WSW 12.7 mph - N/A   Mostly Cloudy
8:51 PM 80.1 °F 51.1 °F 36% 29.90 in 10.0 mi WSW 12.7 mph - N/A   Mostly Cloudy
9:51 PM 79.0 °F 52.0 °F 39% 29.91 in 10.0 mi WSW 11.5 mph - N/A   Mostly Cloudy
10:51 PM 78.1 °F 53.1 °F 42% 29.91 in 10.0 mi West 10.4 mph - N/A   Mostly Cloudy
11:51 PM 77.0 °F 53.1 °F 43% 29.90 in 10.0 mi West 12.7 mph - N/A   Overcast